[[{"header":{"parameterUnit":"m.s-1","parameterCategory":2,"la1":30.2991,"la2":30.254,"lo1":-89.0895,"lo2":-89.0444,"dy":0.0017,"dx":0.0017,"nx":28,"ny":28,"refTime":"2025-02-09T03:00:00:Z","depth":"0","parameterNumber":2,"parameterNumberName":"U-component_of_CURRENTS"},"data":[0,0,0,0,0,0,0,0,0,0,0,0,0,0,0,0,0,0,0,0,0,0,0,0,0,0,0,0,0,0,0,0,0,0,0,0,0,0,0,0,0,0,0,0,0,0,0,0,0,0,0,0,0,0,0,0,0,0,-0.249,-0.249,0,-0.2486,-0.2486,-0.2485,-0.2462,-0.2462,-0.2461,-0.2461,-0.2424,-0.2423,-0.2422,0,0,0,0,0,0,0,0,0,0,0,0,0,-0.2459,-0.246,-0.249,-0.249,-0.2491,-0.2486,-0.2486,-0.2485,-0.2462,-0.2462,-0.2461,-0.2461,-0.2424,-0.2423,-0.2422,0,0,0,0,0,0,0,0,0,0,0,0,0,-0.2463,-0.246,-0.249,-0.2481,-0.248,-0.2486,-0.2486,-0.2485,-0.2462,-0.2462,-0.2461,-0.2461,-0.2424,-0.2423,-0.2422,-0.2425,0,0,-0.2419,-0.2419,0,0,0,0,0,0,0,0,-0.2463,-0.2463,-0.2482,-0.2481,-0.2481,-0.2477,-0.2461,-0.2464,-0.2462,-0.2466,-0.2461,-0.246,-0.2441,-0.2438,-0.2435,-0.2423,-0.2421,-0.2419,-0.2418,-0.2418,-0.2418,0,0,0,0,0,0,0,-0.2462,-0.2463,-0.2486,-0.2482,-0.2481,-0.247,-0.247,-0.2461,-0.2453,-0.2465,-0.2464,-0.2469,-0.244,-0.2436,-0.2434,-0.2421,-0.2419,-0.2418,-0.2417,-0.2417,-0.2397,-0.2397,0,0,0,0,0,0,-0.247,-0.2463,-0.2486,-0.2486,-0.2474,-0.2471,-0.2471,-0.2476,-0.2454,-0.2451,-0.2469,-0.2468,-0.2438,-0.2435,-0.2432,-0.2433,-0.2418,-0.2417,-0.2416,-0.2397,-0.2397,-0.2397,0,0,0,0,0,0,-0.247,-0.2472,-0.2486,-0.2477,-0.2478,-0.2473,-0.2478,-0.2476,-0.2472,-0.2457,-0.2453,-0.2468,-0.2437,-0.2434,-0.2424,-0.2431,-0.2416,-0.2415,-0.2397,-0.2397,-0.2397,-0.2434,0,0,0,0,0,0,-0.2469,-0.2472,-0.2474,-0.2477,-0.2479,-0.2494,-0.2479,-0.2476,-0.2477,-0.2475,-0.2455,-0.2451,-0.2437,-0.2426,-0.2423,-0.2429,-0.2415,-0.2397,-0.2397,-0.2397,-0.2433,-0.2436,-0.2438,0,0,0,0,0,-0.2468,-0.2474,-0.2474,-0.2476,-0.2483,-0.2495,-0.2494,-0.2486,-0.2478,-0.248,-0.2463,-0.2452,-0.2425,-0.2425,-0.2422,-0.2428,-0.2397,-0.2397,-0.2397,-0.2432,-0.2435,-0.2438,0,0,0,0,0,0,-0.2458,-0.2473,-0.2472,-0.2481,-0.249,-0.2492,-0.2492,-0.249,-0.2479,-0.2472,-0.2454,-0.2449,-0.2445,-0.243,-0.2431,-0.2422,-0.2408,-0.2408,-0.2436,-0.2439,-0.2441,-0.2436,-0.2414,0,0,0,0,0,-0.246,-0.2466,-0.248,-0.2485,-0.2492,-0.2492,-0.2494,-0.2493,-0.2488,-0.2482,-0.2469,-0.2453,-0.2444,-0.2436,-0.2426,-0.2421,-0.2395,-0.2422,-0.2424,-0.2427,-0.242,-0.2392,-0.2391,-0.2398,-0.2398,-0.2398,0,0,-0.2456,-0.2465,-0.2467,-0.2483,-0.2486,-0.2499,-0.2491,-0.2499,-0.2504,-0.248,-0.2475,-0.2464,-0.2445,-0.2441,-0.2437,-0.2429,-0.2411,-0.2427,-0.2429,-0.2421,-0.2392,-0.2391,-0.2391,-0.2398,-0.2398,-0.2398,0,0,-0.2455,-0.2462,-0.2469,-0.2481,-0.2495,-0.2501,-0.2506,-0.2512,-0.2509,-0.2509,-0.2493,-0.2482,-0.247,-0.2456,-0.2448,-0.2457,-0.2428,-0.2457,-0.2463,-0.2437,-0.2436,-0.2435,-0.24,-0.2396,-0.2455,-0.2455,-0.2455,0,-0.2448,-0.2461,-0.2472,-0.2487,-0.2495,-0.2504,-0.2516,-0.252,-0.252,-0.2515,-0.2511,-0.2486,-0.2475,-0.2463,-0.2468,-0.2463,-0.2439,-0.2456,-0.244,-0.2438,-0.2437,-0.2401,-0.2396,-0.2457,-0.2457,-0.2457,-0.2456,0,-0.2455,-0.2467,-0.2474,-0.2494,-0.2507,-0.2518,-0.2534,-0.254,-0.2539,-0.2537,-0.2526,-0.2509,-0.249,-0.2491,-0.2483,-0.2468,-0.2453,-0.2451,-0.2434,-0.2438,-0.2401,-0.2394,-0.246,-0.2459,-0.2458,-0.2458,0,0,-0.2428,-0.247,-0.247,-0.2482,-0.2511,-0.2521,-0.2538,-0.255,-0.2554,-0.2548,-0.2544,-0.2528,-0.2514,-0.2503,-0.2491,-0.247,-0.2444,-0.2457,-0.2455,-0.2425,-0.2377,-0.2318,-0.2305,-0.2441,-0.244,-0.2439,-0.2356,0,-0.2425,-0.245,-0.2473,-0.2493,-0.2507,-0.253,-0.2547,-0.2559,-0.2563,-0.2566,-0.2545,-0.2537,-0.2521,-0.2513,-0.249,-0.2466,-0.2429,-0.2466,-0.2374,-0.2371,-0.232,-0.2296,-0.2221,-0.2136,-0.2349,-0.2348,-0.2347,0,-0.2414,-0.2435,-0.2453,-0.2493,-0.2501,-0.2516,-0.2539,-0.2557,-0.2569,-0.2572,-0.2558,-0.2548,-0.2523,-0.2509,-0.2441,-0.2467,-0.2416,-0.2388,-0.2384,-0.2309,-0.23,-0.2165,-0.2116,-0.2096,-0.2337,-0.2338,-0.2339,0,-0.2371,-0.2415,-0.2427,-0.244,-0.249,-0.2499,-0.2523,-0.2547,-0.2556,-0.2571,-0.2571,-0.2547,-0.2525,-0.2475,-0.2418,-0.2428,-0.2339,-0.2345,-0.2234,-0.2229,-0.2134,-0.2122,-0.2053,-0.2271,-0.2272,-0.2272,-0.2272,0,-0.2347,-0.2354,-0.2409,-0.2413,-0.2428,-0.2475,-0.2487,-0.2512,-0.2543,-0.2547,-0.256,-0.2547,-0.2515,-0.2466,-0.2415,-0.23,-0.2326,-0.2218,-0.2198,-0.2145,-0.2135,-0.2089,-0.2108,-0.2269,-0.2269,-0.227,-0.2271,0,-0.2282,-0.2322,-0.2337,-0.239,-0.2404,-0.2409,-0.2459,-0.2471,-0.2511,-0.2518,-0.2521,-0.2532,-0.2467,-0.2416,-0.2335,-0.2277,-0.2147,-0.214,-0.2077,-0.2049,-0.1926,-0.195,-0.1842,-0.179,-0.2,-0.1998,-0.1996,0,-0.2246,-0.2247,-0.2297,-0.2304,-0.2322,-0.2348,-0.2366,-0.2432,-0.2452,-0.2497,-0.2493,-0.2454,-0.2395,-0.2263,-0.2167,-0.2045,-0.2041,-0.191,-0.1909,-0.1891,-0.1903,-0.1924,-0.189,-0.1799,-0.1796,-0.1793,-0.1791,0,-0.2166,-0.2184,-0.2196,-0.2214,-0.2232,-0.2254,-0.2292,-0.2304,-0.2382,-0.2388,-0.2381,-0.2342,-0.2236,-0.2085,-0.1948,-0.1873,-0.187,-0.185,-0.1845,-0.1741,-0.1744,-0.1694,-0.189,-0.1768,-0.177,-0.1772,-0.1773,-0.1774,-0.2088,-0.2078,-0.2095,-0.2097,-0.2123,-0.2129,-0.2107,-0.2164,-0.2165,-0.215,-0.2215,-0.2123,-0.2034,-0.1824,-0.175,-0.1612,-0.1664,-0.1562,-0.1591,-0.1613,-0.1561,-0.1701,-0.1554,-0.1555,-0.1556,-0.1557,-0.1557,0,-0.1973,-0.1973,-0.1978,-0.1976,-0.1952,-0.2006,-0.2026,-0.1983,-0.194,-0.1965,-0.1927,-0.1836,-0.1682,-0.1612,-0.1475,-0.1389,-0.1362,-0.136,-0.138,-0.1357,-0.1476,-0.1466,-0.1276,-0.1276,-0.1276,-0.1276,-0.1276,-0.1276,-0.1913,-0.1868,-0.1871,-0.1788,-0.1788,-0.171,-0.1689,-0.165,-0.1638,-0.1551,-0.1522,-0.1535,-0.1491,-0.1509,-0.1371,-0.1296,-0.1265,-0.1221,-0.1243,-0.1353,-0.1375,-0.1396,-0.139,-0.1187,-0.1187,-0.1077,-0.1076,-0.1075]},{"header":{"parameterUnit":"m.s-1","parameterCategory":2,"la1":30.2991,"la2":30.254,"lo1":-89.0895,"lo2":-89.0444,"dy":0.0017,"dx":0.0017,"nx":28,"ny":28,"refTime":"2025-02-09T03:00:00:Z","depth":"0","parameterNumber":3,"parameterNumberName":"V-component_of_CURRENTS"},"data":[0,0,0,0,0,0,0,0,0,0,0,0,0,0,0,0,0,0,0,0,0,0,0,0,0,0,0,0,0,0,0,0,0,0,0,0,0,0,0,0,0,0,0,0,0,0,0,0,0,0,0,0,0,0,0,0,0,0,-0.0459,-0.0458,0,-0.0415,-0.0415,-0.0414,-0.0385,-0.0385,-0.0385,-0.0384,-0.0286,-0.0283,-0.0281,0,0,0,0,0,0,0,0,0,0,0,0,0,-0.0469,-0.0469,-0.0459,-0.0458,-0.0458,-0.0415,-0.0415,-0.0414,-0.0385,-0.0385,-0.0385,-0.0384,-0.0287,-0.0284,-0.0281,0,0,0,0,0,0,0,0,0,0,0,0,0,-0.0449,-0.0469,-0.0459,-0.0438,-0.0436,-0.0416,-0.0415,-0.0414,-0.0385,-0.0385,-0.0385,-0.0384,-0.0288,-0.0284,-0.028,-0.0262,0,0,-0.0269,-0.0267,0,0,0,0,0,0,0,0,-0.045,-0.0448,-0.0442,-0.044,-0.0437,-0.0406,-0.0382,-0.0361,-0.0385,-0.0404,-0.0384,-0.0384,-0.0321,-0.0315,-0.0307,-0.0258,-0.0254,-0.0269,-0.0266,-0.0265,-0.0264,0,0,0,0,0,0,0,-0.0451,-0.045,-0.0441,-0.0441,-0.0438,-0.0415,-0.0412,-0.0378,-0.0363,-0.0402,-0.04,-0.0396,-0.0319,-0.0311,-0.0305,-0.0252,-0.0269,-0.0265,-0.0263,-0.0262,-0.0174,-0.0174,0,0,0,0,0,0,-0.0461,-0.0451,-0.0442,-0.044,-0.0444,-0.0416,-0.0412,-0.0416,-0.0365,-0.0357,-0.0396,-0.0395,-0.0317,-0.0309,-0.0301,-0.0273,-0.0265,-0.0261,-0.0259,-0.0174,-0.0174,-0.0174,0,0,0,0,0,0,-0.0461,-0.046,-0.0444,-0.0444,-0.0441,-0.0416,-0.042,-0.0415,-0.0407,-0.0361,-0.0352,-0.0393,-0.0317,-0.0306,-0.0274,-0.0269,-0.026,-0.0256,-0.0175,-0.0174,-0.0174,-0.0219,0,0,0,0,0,0,-0.0462,-0.0461,-0.0466,-0.0445,-0.0441,-0.0437,-0.042,-0.0414,-0.0405,-0.0402,-0.0355,-0.0346,-0.0316,-0.028,-0.0271,-0.0264,-0.0253,-0.0175,-0.0174,-0.0174,-0.0218,-0.0221,-0.0223,0,0,0,0,0,-0.0462,-0.0474,-0.0467,-0.0466,-0.045,-0.0437,-0.0433,-0.0413,-0.0405,-0.0404,-0.0373,-0.0347,-0.0272,-0.0277,-0.0266,-0.0258,-0.0175,-0.0175,-0.0174,-0.0217,-0.022,-0.0223,0,0,0,0,0,0,-0.048,-0.0471,-0.0463,-0.0471,-0.0456,-0.0432,-0.0431,-0.0417,-0.0392,-0.039,-0.0346,-0.0335,-0.0306,-0.0276,-0.0283,-0.0232,-0.0219,-0.0216,-0.0255,-0.0257,-0.026,-0.0273,-0.025,0,0,0,0,0,-0.0487,-0.0494,-0.0477,-0.0482,-0.0478,-0.0454,-0.0447,-0.0435,-0.0411,-0.04,-0.0367,-0.033,-0.0296,-0.0274,-0.0242,-0.0213,-0.0177,-0.02,-0.0202,-0.0205,-0.0208,-0.0156,-0.0154,-0.0173,-0.0173,-0.0173,0,0,-0.0496,-0.0491,-0.0495,-0.0486,-0.0474,-0.0474,-0.0449,-0.0443,-0.0438,-0.0392,-0.0374,-0.0339,-0.0292,-0.0263,-0.0246,-0.0236,-0.0179,-0.0205,-0.0207,-0.0209,-0.0155,-0.0153,-0.0151,-0.0173,-0.0173,-0.0173,0,0,-0.052,-0.0512,-0.0528,-0.0519,-0.0506,-0.049,-0.049,-0.0467,-0.0452,-0.0431,-0.0396,-0.0359,-0.0311,-0.0274,-0.0249,-0.0245,-0.0199,-0.0235,-0.0251,-0.0201,-0.0199,-0.0197,-0.0146,-0.0138,-0.0231,-0.0231,-0.0231,0,-0.0531,-0.0548,-0.0529,-0.0539,-0.0535,-0.0501,-0.0512,-0.0491,-0.0459,-0.0441,-0.0432,-0.0354,-0.0315,-0.027,-0.0271,-0.0249,-0.0216,-0.0245,-0.0205,-0.0202,-0.0199,-0.0147,-0.0138,-0.0233,-0.0233,-0.0233,-0.0232,0,-0.0567,-0.0578,-0.0585,-0.0588,-0.0578,-0.0581,-0.0551,-0.0536,-0.0511,-0.0481,-0.0436,-0.0384,-0.0335,-0.0316,-0.0292,-0.025,-0.0232,-0.0219,-0.0199,-0.0199,-0.0144,-0.0135,-0.0236,-0.0235,-0.0235,-0.0234,0,0,-0.0601,-0.0611,-0.0613,-0.0623,-0.0604,-0.0602,-0.0588,-0.056,-0.0545,-0.0502,-0.0473,-0.0413,-0.0378,-0.0348,-0.0306,-0.0262,-0.021,-0.0238,-0.0234,-0.0192,-0.0097,-0.0049,-0.0033,-0.0192,-0.0191,-0.019,-0.0066,0,-0.0637,-0.0675,-0.0661,-0.0683,-0.0698,-0.0658,-0.0647,-0.0613,-0.0571,-0.0532,-0.0463,-0.0419,-0.0391,-0.0365,-0.0318,-0.0235,-0.0188,-0.0244,-0.0099,-0.0095,-0.0056,-0.0022,0.0007,0.0123,-0.0057,-0.0055,-0.0054,0,-0.0678,-0.0698,-0.0735,-0.0735,-0.0736,-0.0737,-0.0706,-0.0689,-0.0618,-0.0582,-0.0522,-0.0462,-0.0384,-0.0366,-0.0226,-0.0265,-0.019,-0.0128,-0.0121,-0.0054,-0.0029,0.0094,0.0147,0.0253,-0.0039,-0.004,-0.0041,0,-0.0723,-0.0745,-0.0778,-0.078,-0.0775,-0.0774,-0.0761,-0.0706,-0.0684,-0.0608,-0.0576,-0.0477,-0.0416,-0.0319,-0.0183,-0.0204,-0.0025,-0.0033,0.0082,0.0086,0.0152,0.016,0.0321,0.0061,0.006,0.006,0.006,0,-0.0771,-0.0793,-0.0804,-0.0823,-0.0849,-0.0821,-0.0822,-0.079,-0.0731,-0.0694,-0.0607,-0.0546,-0.0403,-0.028,-0.0179,-0.0004,-0.0013,0.0091,0.0127,0.0137,0.0142,0.0269,0.0303,0.0065,0.0064,0.0063,0.0062,0,-0.0817,-0.0826,-0.0864,-0.0873,-0.0876,-0.0893,-0.0874,-0.0865,-0.0803,-0.075,-0.0725,-0.0579,-0.041,-0.0257,-0.0068,0.0018,0.0247,0.0227,0.0233,0.0267,0.0452,0.0481,0.068,0.0746,0.0368,0.037,0.0371,0,-0.0845,-0.0873,-0.0909,-0.0935,-0.0943,-0.0958,-0.0965,-0.0913,-0.089,-0.0762,-0.0734,-0.0555,-0.0409,-0.011,0.0082,0.0291,0.0358,0.0426,0.039,0.0484,0.0543,0.0559,0.06,0.0463,0.0465,0.0467,0.0468,0,-0.0893,-0.0907,-0.0939,-0.1,-0.1024,-0.1042,-0.1038,-0.1028,-0.0944,-0.0866,-0.0719,-0.0585,-0.0283,-0.0011,0.026,0.0377,0.0512,0.0471,0.0576,0.0642,0.0665,0.0738,0.0355,0.0485,0.0483,0.0482,0.0481,0.0481,-0.0918,-0.0959,-0.1005,-0.1057,-0.1089,-0.1109,-0.1107,-0.1063,-0.0997,-0.0844,-0.0716,-0.0472,-0.0107,0.029,0.0426,0.0708,0.0668,0.0777,0.0809,0.082,0.0875,0.0529,0.0691,0.069,0.069,0.0689,0.0689,0,-0.0947,-0.0995,-0.1056,-0.1113,-0.1151,-0.1151,-0.1138,-0.1091,-0.0991,-0.0815,-0.0633,-0.0187,0.017,0.0487,0.0877,0.1029,0.1047,0.1104,0.1131,0.1159,0.087,0.0864,0.1062,0.1062,0.1062,0.1062,0.1062,0.1062,-0.0964,-0.1032,-0.1069,-0.1144,-0.1179,-0.1189,-0.1173,-0.1063,-0.0924,-0.0609,-0.0328,-0.0104,0.0347,0.0947,0.1298,0.1329,0.1444,0.1446,0.1507,0.1295,0.1266,0.1238,0.1242,0.1517,0.1517,0.1783,0.1786,0.1788]}],[{"header":{"parameterUnit":"m.s-1","parameterCategory":2,"la1":30.2991,"la2":30.254,"lo1":-89.0895,"lo2":-89.0444,"dy":0.0017,"dx":0.0017,"nx":28,"ny":28,"refTime":"2025-02-09T03:00:00:Z","depth":"2","parameterNumber":2,"parameterNumberName":"U-component_of_CURRENTS"},"data":[0,0,0,0,0,0,0,0,0,0,0,0,0,0,0,0,0,0,0,0,0,0,0,0,0,0,0,0,0,0,0,0,0,0,0,0,0,0,0,0,0,0,0,0,0,0,0,0,0,0,0,0,0,0,0,0,0,0,-0.2091,-0.2091,0,-0.2091,-0.2091,-0.2091,-0.2076,-0.2076,-0.2076,-0.2075,-0.2056,-0.2055,-0.2055,0,0,0,0,0,0,0,0,0,0,0,0,0,-0.2063,-0.2064,-0.2091,-0.2091,-0.2092,-0.2091,-0.2091,-0.2091,-0.2076,-0.2076,-0.2076,-0.2075,-0.2056,-0.2055,-0.2055,0,0,0,0,0,0,0,0,0,0,0,0,0,-0.2068,-0.2064,-0.2091,-0.2086,-0.2086,-0.2091,-0.2091,-0.2091,-0.2076,-0.2076,-0.2076,-0.2075,-0.2056,-0.2055,-0.2055,-0.2057,0,0,-0.2053,-0.2053,0,0,0,0,0,0,0,0,-0.2068,-0.2069,-0.2087,-0.2086,-0.2086,-0.2085,-0.2074,-0.2079,-0.2076,-0.2077,-0.2075,-0.2075,-0.2066,-0.2064,-0.2062,-0.2056,-0.2055,-0.2053,-0.2053,-0.2053,-0.2052,0,0,0,0,0,0,0,-0.2068,-0.2069,-0.2089,-0.2087,-0.2087,-0.2079,-0.2079,-0.2075,-0.2071,-0.2077,-0.2077,-0.2081,-0.2065,-0.2062,-0.2061,-0.2055,-0.2053,-0.2053,-0.2052,-0.2052,-0.2049,-0.205,0,0,0,0,0,0,-0.2074,-0.2069,-0.2089,-0.2089,-0.2079,-0.208,-0.208,-0.2084,-0.2071,-0.207,-0.2081,-0.208,-0.2063,-0.2062,-0.206,-0.2073,-0.2053,-0.2052,-0.2052,-0.2049,-0.2049,-0.205,0,0,0,0,0,0,-0.2073,-0.2075,-0.2089,-0.2081,-0.2082,-0.2081,-0.2085,-0.2084,-0.2087,-0.2075,-0.2072,-0.2085,-0.2063,-0.2061,-0.206,-0.2072,-0.2052,-0.2051,-0.2049,-0.2049,-0.205,-0.2091,0,0,0,0,0,0,-0.2072,-0.2075,-0.2078,-0.2081,-0.2083,-0.2099,-0.2086,-0.2084,-0.209,-0.2089,-0.2078,-0.2075,-0.2063,-0.2061,-0.206,-0.207,-0.2051,-0.2049,-0.2049,-0.2049,-0.2089,-0.2093,-0.2096,0,0,0,0,0,-0.2071,-0.2078,-0.2079,-0.2081,-0.2088,-0.21,-0.21,-0.2096,-0.2091,-0.2096,-0.2086,-0.2076,-0.2063,-0.2061,-0.2059,-0.207,-0.2048,-0.2049,-0.2049,-0.2088,-0.2092,-0.2095,0,0,0,0,0,0,-0.2067,-0.2078,-0.2078,-0.2088,-0.2097,-0.2098,-0.2102,-0.2102,-0.2098,-0.2095,-0.2081,-0.2078,-0.2081,-0.2069,-0.2067,-0.2069,-0.2053,-0.2054,-0.2083,-0.2087,-0.209,-0.2085,-0.205,0,0,0,0,0,-0.2069,-0.2075,-0.2087,-0.2094,-0.2101,-0.2103,-0.2107,-0.2107,-0.2106,-0.2104,-0.2097,-0.2087,-0.2082,-0.2079,-0.2072,-0.2075,-0.2051,-0.208,-0.2083,-0.2086,-0.2079,-0.2057,-0.2057,-0.2052,-0.2052,-0.2052,0,0,-0.2068,-0.2075,-0.2078,-0.2093,-0.2098,-0.2111,-0.2104,-0.2115,-0.2123,-0.2103,-0.2108,-0.21,-0.2085,-0.2088,-0.2088,-0.208,-0.2075,-0.2086,-0.2089,-0.2081,-0.2057,-0.2058,-0.2058,-0.2052,-0.2052,-0.2052,0,0,-0.2071,-0.2078,-0.2086,-0.2098,-0.2114,-0.2118,-0.2126,-0.2135,-0.2135,-0.2143,-0.2129,-0.2124,-0.2121,-0.2109,-0.2103,-0.2118,-0.2094,-0.2121,-0.2133,-0.2112,-0.2112,-0.2112,-0.2083,-0.208,-0.2122,-0.2122,-0.2122,0,-0.2069,-0.208,-0.209,-0.2105,-0.2115,-0.2125,-0.2138,-0.2145,-0.2151,-0.2151,-0.2149,-0.2136,-0.2128,-0.2122,-0.2129,-0.2125,-0.2107,-0.2123,-0.2116,-0.2115,-0.2114,-0.2085,-0.2081,-0.2124,-0.2124,-0.2124,-0.2123,0,-0.2079,-0.2092,-0.21,-0.212,-0.2134,-0.2147,-0.2164,-0.2175,-0.2179,-0.2179,-0.2178,-0.2165,-0.2153,-0.2156,-0.2149,-0.2142,-0.2129,-0.2125,-0.2107,-0.2118,-0.2085,-0.2081,-0.2127,-0.2126,-0.2126,-0.2125,0,0,-0.2058,-0.2098,-0.2099,-0.2112,-0.2142,-0.2153,-0.2175,-0.2189,-0.2199,-0.22,-0.2204,-0.2194,-0.2184,-0.2175,-0.2166,-0.2151,-0.2134,-0.214,-0.2138,-0.2113,-0.2082,-0.2025,-0.2013,-0.2133,-0.2133,-0.2132,-0.2063,0,-0.206,-0.2086,-0.2107,-0.2132,-0.2146,-0.217,-0.219,-0.2205,-0.2215,-0.2224,-0.2208,-0.2208,-0.2193,-0.2191,-0.2174,-0.2152,-0.2123,-0.2153,-0.2074,-0.2071,-0.202,-0.2006,-0.188,-0.1803,-0.2058,-0.2057,-0.2056,0,-0.2054,-0.2074,-0.2098,-0.2137,-0.2146,-0.2164,-0.2192,-0.2212,-0.223,-0.2238,-0.2232,-0.2225,-0.2209,-0.2195,-0.214,-0.2163,-0.2119,-0.2094,-0.2091,-0.2016,-0.2004,-0.1833,-0.1784,-0.2048,-0.2048,-0.2049,-0.2049,0,-0.2019,-0.2063,-0.2078,-0.2092,-0.2141,-0.2154,-0.218,-0.2208,-0.2221,-0.2243,-0.2248,-0.2232,-0.2218,-0.2176,-0.2126,-0.2135,-0.206,-0.2063,-0.196,-0.1956,-0.1819,-0.1804,-0.2002,-0.2002,-0.2002,-0.2002,-0.2002,0,-0.2,-0.2011,-0.2064,-0.2072,-0.2091,-0.2137,-0.2156,-0.2183,-0.2217,-0.2223,-0.2244,-0.2234,-0.2212,-0.2172,-0.2126,-0.2024,-0.2051,-0.1949,-0.193,-0.183,-0.1817,-0.2008,-0.201,-0.2,-0.2,-0.2001,-0.2001,0,-0.1945,-0.1984,-0.2003,-0.2056,-0.2071,-0.2082,-0.2134,-0.2148,-0.2193,-0.2203,-0.2209,-0.2225,-0.2171,-0.2132,-0.2062,-0.2007,-0.1933,-0.1883,-0.1767,-0.1735,-0.1843,-0.1847,-0.1762,-0.1759,-0.1757,-0.1755,-0.1753,0,-0.1915,-0.1919,-0.1971,-0.198,-0.2,-0.2031,-0.2049,-0.2115,-0.2133,-0.2182,-0.2177,-0.2153,-0.2097,-0.1984,-0.1897,-0.1788,-0.1845,-0.1615,-0.1603,-0.1826,-0.1816,-0.1824,-0.1832,-0.1438,-0.1434,-0.1431,-0.1428,0,-0.1847,-0.1867,-0.1881,-0.1901,-0.1921,-0.1942,-0.1979,-0.1989,-0.2063,-0.2069,-0.206,-0.2024,-0.1937,-0.1771,-0.1656,-0.1582,-0.1631,-0.1543,-0.1788,-0.1528,-0.1517,-0.151,-0.1528,-0.1398,-0.1401,-0.1404,-0.1405,-0.1406,-0.178,-0.1772,-0.1791,-0.1796,-0.1823,-0.1824,-0.1798,-0.1846,-0.1842,-0.1819,-0.1884,-0.1778,-0.1744,-0.1488,-0.1389,-0.1312,-0.1417,-0.135,-0.1362,-0.1376,-0.1361,-0.1347,-0.1193,-0.1195,-0.1196,-0.1198,-0.1199,0,-0.1678,-0.1678,-0.1684,-0.1681,-0.1658,-0.1712,-0.172,-0.1666,-0.1612,-0.1626,-0.1583,-0.1387,-0.1271,-0.1236,-0.1071,-0.1029,-0.1027,-0.0983,-0.0989,-0.1019,-0.1045,-0.1015,-0.0754,-0.0753,-0.0751,-0.075,0,0,-0.1625,-0.1583,-0.1583,-0.1502,-0.1502,-0.1421,-0.1393,-0.1336,-0.1311,-0.1205,-0.1151,-0.1217,-0.1219,-0.0999,-0.0936,-0.0823,-0.0914,-0.0778,-0.1137,-0.1176,-0.1201,-0.1259,-0.1246,0,0,0,0,0]},{"header":{"parameterUnit":"m.s-1","parameterCategory":2,"la1":30.2991,"la2":30.254,"lo1":-89.0895,"lo2":-89.0444,"dy":0.0017,"dx":0.0017,"nx":28,"ny":28,"refTime":"2025-02-09T03:00:00:Z","depth":"2","parameterNumber":3,"parameterNumberName":"V-component_of_CURRENTS"},"data":[0,0,0,0,0,0,0,0,0,0,0,0,0,0,0,0,0,0,0,0,0,0,0,0,0,0,0,0,0,0,0,0,0,0,0,0,0,0,0,0,0,0,0,0,0,0,0,0,0,0,0,0,0,0,0,0,0,0,-0.0489,-0.0488,0,-0.0451,-0.0451,-0.045,-0.0427,-0.0427,-0.0427,-0.0426,-0.0338,-0.0335,-0.0333,0,0,0,0,0,0,0,0,0,0,0,0,0,-0.0496,-0.0497,-0.0489,-0.0488,-0.0488,-0.0451,-0.0451,-0.045,-0.0427,-0.0427,-0.0427,-0.0426,-0.0338,-0.0336,-0.0333,0,0,0,0,0,0,0,0,0,0,0,0,0,-0.0479,-0.0497,-0.0489,-0.0472,-0.047,-0.0451,-0.0451,-0.045,-0.0427,-0.0427,-0.0427,-0.0426,-0.0339,-0.0336,-0.0333,-0.0315,0,0,-0.0322,-0.0321,0,0,0,0,0,0,0,0,-0.048,-0.0479,-0.0475,-0.0473,-0.0471,-0.0444,-0.0421,-0.0402,-0.0427,-0.0443,-0.0426,-0.0426,-0.0369,-0.0363,-0.0356,-0.0311,-0.0307,-0.0322,-0.032,-0.0318,-0.0317,0,0,0,0,0,0,0,-0.0482,-0.048,-0.0474,-0.0474,-0.0472,-0.0451,-0.0449,-0.0417,-0.0406,-0.0442,-0.044,-0.0436,-0.0367,-0.036,-0.0354,-0.0305,-0.0322,-0.0319,-0.0317,-0.0316,-0.0236,-0.0236,0,0,0,0,0,0,-0.0489,-0.0482,-0.0475,-0.0472,-0.0476,-0.0451,-0.0449,-0.0452,-0.0407,-0.0401,-0.0436,-0.0435,-0.0366,-0.0358,-0.0351,-0.0323,-0.0318,-0.0315,-0.0313,-0.0236,-0.0236,-0.0236,0,0,0,0,0,0,-0.049,-0.0489,-0.0476,-0.0476,-0.0473,-0.0452,-0.0456,-0.0452,-0.0445,-0.0404,-0.0396,-0.0434,-0.0365,-0.0356,-0.0327,-0.0319,-0.0314,-0.0311,-0.0236,-0.0236,-0.0236,-0.0269,0,0,0,0,0,0,-0.049,-0.049,-0.0495,-0.0477,-0.0473,-0.0469,-0.0456,-0.0451,-0.0443,-0.0441,-0.0399,-0.0391,-0.0364,-0.0332,-0.0324,-0.0314,-0.0308,-0.0236,-0.0236,-0.0236,-0.0268,-0.027,-0.0272,0,0,0,0,0,-0.0491,-0.0501,-0.0496,-0.0495,-0.0481,-0.0469,-0.0466,-0.045,-0.0443,-0.0442,-0.0415,-0.0392,-0.0325,-0.033,-0.0319,-0.0309,-0.0236,-0.0236,-0.0236,-0.0267,-0.027,-0.0272,0,0,0,0,0,0,-0.0505,-0.0498,-0.0493,-0.05,-0.0487,-0.0466,-0.0464,-0.0452,-0.0431,-0.0429,-0.0391,-0.0381,-0.0354,-0.0328,-0.0334,-0.0286,-0.0276,-0.0274,-0.0304,-0.0306,-0.0307,-0.0316,-0.0305,0,0,0,0,0,-0.0512,-0.0518,-0.0503,-0.0509,-0.0504,-0.0485,-0.0478,-0.0468,-0.0447,-0.0438,-0.0408,-0.0375,-0.0345,-0.0324,-0.0296,-0.0268,-0.0235,-0.0255,-0.0257,-0.0258,-0.0259,-0.0208,-0.0205,-0.0235,-0.0235,-0.0235,0,0,-0.0519,-0.0515,-0.0519,-0.0512,-0.0501,-0.05,-0.048,-0.0474,-0.0469,-0.043,-0.0413,-0.0382,-0.0341,-0.0313,-0.0297,-0.0289,-0.0232,-0.0258,-0.026,-0.0259,-0.0207,-0.0204,-0.0202,-0.0235,-0.0235,-0.0235,0,0,-0.0538,-0.0533,-0.0546,-0.0538,-0.0527,-0.0513,-0.0513,-0.0493,-0.048,-0.046,-0.0431,-0.0396,-0.0354,-0.0318,-0.0295,-0.0289,-0.0248,-0.0281,-0.0291,-0.0241,-0.0238,-0.0235,-0.019,-0.0182,-0.0277,-0.0277,-0.0277,0,-0.0547,-0.0562,-0.0546,-0.0554,-0.055,-0.0522,-0.053,-0.0511,-0.0483,-0.0467,-0.046,-0.0389,-0.0354,-0.0309,-0.0309,-0.0291,-0.0262,-0.0286,-0.0244,-0.024,-0.0236,-0.019,-0.0181,-0.0279,-0.0279,-0.0279,-0.0279,0,-0.0576,-0.0585,-0.059,-0.0592,-0.0583,-0.0585,-0.0558,-0.0545,-0.0524,-0.0498,-0.0455,-0.0408,-0.0363,-0.0345,-0.0324,-0.028,-0.0267,-0.0256,-0.0239,-0.0235,-0.0187,-0.0177,-0.0281,-0.0281,-0.028,-0.028,0,0,-0.0603,-0.0611,-0.0613,-0.0621,-0.0604,-0.0602,-0.0587,-0.0562,-0.0548,-0.0508,-0.048,-0.0423,-0.0392,-0.0365,-0.0327,-0.0282,-0.0229,-0.0263,-0.026,-0.022,-0.0123,-0.0093,-0.008,-0.0214,-0.0212,-0.0211,-0.0099,0,-0.0631,-0.0662,-0.065,-0.0667,-0.068,-0.0646,-0.0634,-0.0603,-0.0567,-0.0531,-0.0466,-0.0428,-0.04,-0.0379,-0.0329,-0.0255,-0.0206,-0.0261,-0.013,-0.0126,-0.0102,-0.0068,-0.0084,0.0017,-0.0089,-0.0087,-0.0086,0,-0.0664,-0.0681,-0.0711,-0.0711,-0.0712,-0.0712,-0.0684,-0.0668,-0.0603,-0.0572,-0.0515,-0.0464,-0.0388,-0.0371,-0.0236,-0.0274,-0.0204,-0.0147,-0.0141,-0.0095,-0.0079,-0.0004,0.0038,-0.007,-0.0071,-0.0072,-0.0073,0,-0.0703,-0.0721,-0.0748,-0.075,-0.0744,-0.0744,-0.0733,-0.0683,-0.0665,-0.0595,-0.0569,-0.0474,-0.0421,-0.0325,-0.0202,-0.0219,-0.0052,-0.0057,0.0038,0.0041,0.0064,0.0066,0.0038,0.0038,0.0037,0.0037,0.0037,0,-0.0743,-0.0762,-0.0772,-0.0789,-0.0812,-0.0787,-0.0789,-0.076,-0.0708,-0.0679,-0.0596,-0.0544,-0.0408,-0.0297,-0.0198,-0.004,-0.0042,0.0049,0.0078,0.0052,0.0052,0.0001,-0.0005,0.0041,0.004,0.0039,0.0039,0,-0.0784,-0.079,-0.0824,-0.0832,-0.0836,-0.0853,-0.084,-0.0834,-0.0777,-0.0736,-0.0715,-0.0583,-0.0432,-0.0288,-0.0111,-0.0027,0.0112,0.0165,0.0125,0.0148,0.0168,0.0159,0.0281,0.0283,0.0285,0.0287,0.0288,0,-0.0807,-0.0832,-0.0866,-0.0892,-0.09,-0.0917,-0.0926,-0.088,-0.0863,-0.0754,-0.0732,-0.0577,-0.0453,-0.0176,0.0001,0.0196,0.018,0.0283,0.025,0.018,0.0196,0.0185,0.0174,0.0269,0.027,0.0271,0.0272,0,-0.085,-0.0864,-0.0893,-0.0953,-0.0979,-0.0999,-0.1,-0.0995,-0.0926,-0.0861,-0.074,-0.0629,-0.0358,-0.0129,0.0119,0.0224,0.0249,0.0306,0.0266,0.0203,0.0176,0.0189,0.0178,0.0279,0.0278,0.0278,0.0277,0.0277,-0.0874,-0.0912,-0.0957,-0.1008,-0.1042,-0.1067,-0.107,-0.1038,-0.0988,-0.0863,-0.0755,-0.0547,-0.0345,0.003,0.0197,0.0351,0.0337,0.0368,0.0362,0.0357,0.0328,0.0306,0.0427,0.0427,0.0428,0.0428,0.0428,0,-0.0904,-0.0948,-0.1006,-0.1063,-0.1105,-0.1107,-0.1105,-0.1067,-0.0992,-0.0846,-0.0696,-0.0433,-0.0175,0.0039,0.029,0.0425,0.0402,0.0444,0.0382,0.0374,0.0368,0.0336,0.044,0.044,0.0441,0.0441,0,0,-0.0922,-0.0986,-0.102,-0.1097,-0.1135,-0.1154,-0.1145,-0.1057,-0.0938,-0.0768,-0.0598,-0.0401,-0.0146,0.003,0.02,0.0332,0.0315,0.0344,0.032,0.0219,0.0211,0.0313,0.0256,0,0,0,0,0]}],[{"header":{"parameterUnit":"m.s-1","parameterCategory":2,"la1":30.2991,"la2":30.254,"lo1":-89.0895,"lo2":-89.0444,"dy":0.0017,"dx":0.0017,"nx":28,"ny":28,"refTime":"2025-02-09T03:00:00:Z","depth":"4","parameterNumber":2,"parameterNumberName":"U-component_of_CURRENTS"},"data":[0,0,0,0,0,0,0,0,0,0,0,0,0,0,0,0,0,0,0,0,0,0,0,0,0,0,0,0,0,0,0,0,0,0,0,0,0,0,0,0,0,0,0,0,0,0,0,0,0,0,0,0,0,0,0,0,0,0,-0.1414,-0.1414,0,-0.1449,-0.145,-0.145,-0.148,-0.148,-0.1481,-0.1481,-0.1527,-0.1528,-0.1529,0,0,0,0,0,0,0,0,0,0,0,0,0,-0.1362,-0.1363,-0.1413,-0.1414,-0.1415,-0.1449,-0.145,-0.145,-0.148,-0.1481,-0.1481,-0.1482,-0.1527,-0.1528,-0.1529,0,0,0,0,0,0,0,0,0,0,0,0,0,-0.1388,-0.1363,-0.1413,-0.1435,-0.1437,-0.1449,-0.145,-0.145,-0.148,-0.1481,-0.1481,-0.1482,-0.1527,-0.1528,-0.1529,-0.1523,0,0,-0.1533,-0.1533,0,0,0,0,0,0,0,0,-0.1387,-0.139,-0.1431,-0.1433,-0.1436,-0.1462,-0.1448,-0.1475,-0.148,-0.1462,-0.1481,-0.1482,-0.1507,-0.151,-0.1513,-0.1525,-0.1527,-0.1533,-0.1533,-0.1534,-0.1534,0,0,0,0,0,0,0,-0.1385,-0.1389,-0.1426,-0.1432,-0.1435,-0.1439,-0.1444,-0.1453,-0.1479,-0.1464,-0.1466,-0.1472,-0.1508,-0.1511,-0.1514,-0.1528,-0.1533,-0.1534,-0.1535,-0.1535,-0.1591,-0.1592,0,0,0,0,0,0,-0.1383,-0.1387,-0.1425,-0.1427,-0.1414,-0.144,-0.1445,-0.1452,-0.1479,-0.1484,-0.1472,-0.1474,-0.1509,-0.1513,-0.1516,-0.157,-0.1534,-0.1535,-0.1536,-0.1591,-0.1592,-0.1593,0,0,0,0,0,0,-0.1382,-0.1386,-0.1424,-0.1409,-0.1414,-0.144,-0.1448,-0.1452,-0.1483,-0.1485,-0.149,-0.1501,-0.151,-0.1514,-0.1545,-0.157,-0.1536,-0.1537,-0.159,-0.1591,-0.1592,-0.164,0,0,0,0,0,0,-0.138,-0.1385,-0.1402,-0.1409,-0.1415,-0.1449,-0.1448,-0.1453,-0.1484,-0.1488,-0.1511,-0.1515,-0.1511,-0.1544,-0.1547,-0.1571,-0.1538,-0.1589,-0.159,-0.1592,-0.1638,-0.1643,-0.1647,0,0,0,0,0,-0.1378,-0.1393,-0.1402,-0.1408,-0.1433,-0.145,-0.1454,-0.1473,-0.1485,-0.1502,-0.1518,-0.1515,-0.1555,-0.1545,-0.1549,-0.1574,-0.1588,-0.159,-0.1592,-0.1635,-0.1642,-0.1647,0,0,0,0,0,0,-0.1381,-0.1398,-0.1408,-0.1429,-0.1448,-0.1456,-0.1477,-0.1489,-0.1514,-0.1526,-0.1527,-0.1532,-0.1567,-0.1563,-0.1552,-0.1593,-0.157,-0.1573,-0.1603,-0.1609,-0.1613,-0.1606,-0.1539,0,0,0,0,0,-0.1389,-0.1406,-0.1421,-0.1441,-0.1453,-0.1471,-0.1486,-0.1499,-0.1516,-0.153,-0.1546,-0.156,-0.1571,-0.1586,-0.1593,-0.1619,-0.1598,-0.1636,-0.1641,-0.1645,-0.1641,-0.1629,-0.1632,-0.1598,-0.1598,-0.1598,0,0,-0.1396,-0.1408,-0.142,-0.1444,-0.1461,-0.1482,-0.1482,-0.1513,-0.1535,-0.153,-0.1574,-0.1581,-0.1581,-0.1608,-0.1624,-0.1613,-0.1645,-0.1648,-0.1651,-0.1644,-0.1631,-0.1634,-0.1637,-0.1599,-0.1599,-0.1599,0,0,-0.141,-0.1432,-0.145,-0.1468,-0.1499,-0.1508,-0.1524,-0.155,-0.157,-0.1605,-0.1605,-0.1625,-0.1653,-0.1651,-0.1653,-0.1688,-0.167,-0.17,-0.1724,-0.1712,-0.1715,-0.1717,-0.1698,-0.1697,-0.1705,-0.1705,-0.1705,0,-0.1422,-0.1442,-0.1459,-0.148,-0.15,-0.1524,-0.1548,-0.1569,-0.1604,-0.1618,-0.1629,-0.166,-0.1667,-0.1681,-0.1697,-0.1699,-0.1689,-0.1703,-0.1718,-0.1719,-0.172,-0.17,-0.1699,-0.1707,-0.1707,-0.1707,-0.1707,0,-0.1438,-0.1468,-0.1482,-0.1515,-0.1539,-0.1566,-0.1593,-0.1626,-0.1655,-0.1668,-0.1702,-0.1708,-0.1722,-0.1732,-0.173,-0.1745,-0.1733,-0.1724,-0.1702,-0.1727,-0.1704,-0.1702,-0.1711,-0.171,-0.1709,-0.1709,0,0,-0.1426,-0.1483,-0.1491,-0.1514,-0.1561,-0.1578,-0.1622,-0.1656,-0.1683,-0.1717,-0.1744,-0.1764,-0.1768,-0.1769,-0.1769,-0.1766,-0.177,-0.1757,-0.1756,-0.1737,-0.1744,-0.1634,-0.1622,-0.1769,-0.1769,-0.1769,-0.1726,0,-0.1436,-0.1479,-0.1506,-0.1554,-0.1577,-0.1616,-0.1652,-0.1688,-0.172,-0.1754,-0.1762,-0.1787,-0.1781,-0.1796,-0.1792,-0.1781,-0.1767,-0.1782,-0.1724,-0.1722,-0.162,-0.1616,-0.1769,-0.1724,-0.1724,-0.1724,-0.1723,0,-0.1434,-0.1465,-0.1512,-0.1571,-0.1587,-0.1623,-0.168,-0.1715,-0.176,-0.1785,-0.1807,-0.1816,-0.1826,-0.1816,-0.1792,-0.1807,-0.1776,-0.1759,-0.1756,-0.1632,-0.1608,-0.1694,-0.1719,-0.172,-0.172,-0.172,-0.1721,0,-0.1398,-0.1466,-0.1504,-0.1526,-0.1597,-0.1632,-0.1673,-0.1726,-0.1752,-0.1806,-0.1824,-0.1838,-0.1846,-0.1822,-0.1789,-0.1798,-0.175,-0.1753,-0.1617,-0.1609,-0.1702,-0.17,-0.1715,-0.1715,-0.1715,-0.1715,-0.1715,0,-0.1376,-0.1411,-0.1498,-0.1517,-0.1565,-0.1625,-0.1674,-0.1717,-0.1773,-0.1788,-0.1836,-0.1833,-0.1849,-0.1825,-0.1794,-0.1691,-0.1747,-0.1608,-0.1585,-0.1724,-0.1725,-0.17,-0.1699,-0.1713,-0.1714,-0.1714,-0.1714,0,-0.132,-0.1381,-0.1429,-0.1518,-0.1548,-0.1583,-0.1667,-0.1692,-0.176,-0.1781,-0.1798,-0.1832,-0.1796,-0.1784,-0.1741,-0.1674,-0.1605,-0.155,-0.1694,-0.1682,-0.1473,-0.1475,-0.1396,-0.1391,-0.1388,-0.1385,-0.1382,0,-0.1289,-0.1311,-0.1414,-0.1442,-0.1486,-0.1551,-0.1585,-0.1671,-0.169,-0.1753,-0.1744,-0.1747,-0.1748,-0.159,-0.1605,-0.1521,-0.1496,-0.1455,-0.1464,-0.1452,-0.1438,-0.1446,-0.1453,-0.1376,-0.1375,-0.1374,-0.1373,0,-0.1222,-0.1275,-0.1312,-0.1371,-0.142,-0.146,-0.1518,-0.1518,-0.1599,-0.1682,-0.1628,-0.1591,-0.1543,-0.1499,-0.1439,-0.1385,-0.1486,-0.1416,-0.1424,-0.1432,-0.1427,-0.1419,-0.143,-0.1361,-0.1362,-0.1364,-0.1364,0,-0.117,-0.1181,-0.1238,-0.1272,-0.1333,-0.1335,-0.1384,-0.1393,-0.1419,-0.1498,-0.1476,-0.1478,-0.1524,-0.1426,-0.1376,-0.1311,-0.1288,-0.1242,-0.1259,-0.1273,-0.1252,-0.1229,-0.1067,0,0,0,0,0,-0.1105,-0.11,-0.1129,-0.1157,-0.1212,-0.1238,-0.1317,-0.1367,-0.1451,-0.1371,-0.1417,-0.1364,-0.1286,-0.1296,-0.1197,-0.1316,-0.1295,-0.1197,-0.1253,-0.129,-0.1304,-0.129,0,0,0,0,0,0,-0.106,-0.1084,-0.1088,-0.1046,-0.1041,-0.1079,-0.1119,-0.1182,-0.1147,-0.124,-0.12,-0.1274,-0.1216,-0.1306,-0.1164,-0.1165,-0.1169,-0.1215,-0.1211,-0.1281,-0.1295,-0.1306,-0.1297,0,0,0,0,0]},{"header":{"parameterUnit":"m.s-1","parameterCategory":2,"la1":30.2991,"la2":30.254,"lo1":-89.0895,"lo2":-89.0444,"dy":0.0017,"dx":0.0017,"nx":28,"ny":28,"refTime":"2025-02-09T03:00:00:Z","depth":"4","parameterNumber":3,"parameterNumberName":"V-component_of_CURRENTS"},"data":[0,0,0,0,0,0,0,0,0,0,0,0,0,0,0,0,0,0,0,0,0,0,0,0,0,0,0,0,0,0,0,0,0,0,0,0,0,0,0,0,0,0,0,0,0,0,0,0,0,0,0,0,0,0,0,0,0,0,-0.038,-0.038,0,-0.0362,-0.0362,-0.0362,-0.0357,-0.0357,-0.0357,-0.0357,-0.03,-0.0299,-0.0297,0,0,0,0,0,0,0,0,0,0,0,0,0,-0.0375,-0.0376,-0.038,-0.038,-0.038,-0.0362,-0.0362,-0.0362,-0.0357,-0.0357,-0.0357,-0.0357,-0.0301,-0.0299,-0.0297,0,0,0,0,0,0,0,0,0,0,0,0,0,-0.0369,-0.0376,-0.038,-0.0375,-0.0375,-0.0362,-0.0362,-0.0362,-0.0357,-0.0357,-0.0357,-0.0357,-0.0301,-0.0299,-0.0297,-0.0278,0,0,-0.0289,-0.0288,0,0,0,0,0,0,0,0,-0.037,-0.037,-0.0376,-0.0376,-0.0375,-0.0362,-0.0339,-0.0332,-0.0357,-0.0363,-0.0357,-0.0357,-0.0317,-0.0313,-0.031,-0.0275,-0.0273,-0.0289,-0.0287,-0.0286,-0.0286,0,0,0,0,0,0,0,-0.037,-0.037,-0.0373,-0.0376,-0.0375,-0.0362,-0.0362,-0.0338,-0.0339,-0.0363,-0.0362,-0.0361,-0.0317,-0.0312,-0.0309,-0.0272,-0.0289,-0.0287,-0.0285,-0.0284,-0.023,-0.023,0,0,0,0,0,0,-0.0374,-0.0371,-0.0373,-0.0372,-0.0373,-0.0362,-0.0362,-0.0366,-0.034,-0.0336,-0.036,-0.036,-0.0317,-0.0311,-0.0306,-0.029,-0.0286,-0.0284,-0.0283,-0.023,-0.023,-0.023,0,0,0,0,0,0,-0.0374,-0.0375,-0.0374,-0.0371,-0.037,-0.0362,-0.0367,-0.0365,-0.0367,-0.0338,-0.0334,-0.0365,-0.0316,-0.031,-0.0294,-0.0287,-0.0283,-0.0281,-0.023,-0.023,-0.023,-0.0251,0,0,0,0,0,0,-0.0374,-0.0375,-0.0383,-0.0371,-0.037,-0.0373,-0.0367,-0.0365,-0.0366,-0.0366,-0.034,-0.0335,-0.0316,-0.0298,-0.0291,-0.0284,-0.0279,-0.023,-0.023,-0.023,-0.025,-0.0252,-0.0253,0,0,0,0,0,-0.0374,-0.0384,-0.0383,-0.0384,-0.038,-0.0373,-0.0371,-0.0366,-0.0366,-0.0368,-0.0353,-0.0336,-0.0293,-0.0296,-0.0289,-0.028,-0.023,-0.023,-0.023,-0.025,-0.0252,-0.0253,0,0,0,0,0,0,-0.0385,-0.0384,-0.0383,-0.0392,-0.0386,-0.0373,-0.0376,-0.037,-0.0361,-0.0363,-0.0336,-0.033,-0.0313,-0.0296,-0.0299,-0.0265,-0.0258,-0.0257,-0.0276,-0.0277,-0.0279,-0.0281,-0.0277,0,0,0,0,0,-0.0391,-0.0399,-0.0391,-0.0399,-0.0398,-0.0388,-0.0386,-0.0382,-0.0371,-0.0368,-0.0349,-0.0329,-0.0306,-0.0293,-0.0273,-0.0253,-0.0226,-0.0243,-0.0245,-0.0246,-0.0243,-0.0198,-0.0195,-0.023,-0.023,-0.023,0,0,-0.0397,-0.0397,-0.0403,-0.0402,-0.0398,-0.0398,-0.0387,-0.0388,-0.0386,-0.0361,-0.0355,-0.0334,-0.0303,-0.0284,-0.0274,-0.0268,-0.0222,-0.0246,-0.0247,-0.0244,-0.0198,-0.0194,-0.0191,-0.023,-0.023,-0.023,0,0,-0.0412,-0.0415,-0.0426,-0.0423,-0.042,-0.0412,-0.0414,-0.0404,-0.0398,-0.0389,-0.0368,-0.0344,-0.0317,-0.0288,-0.027,-0.0266,-0.0233,-0.0263,-0.0266,-0.0222,-0.0219,-0.0215,-0.0178,-0.0171,-0.026,-0.026,-0.026,0,-0.042,-0.0433,-0.0427,-0.0434,-0.0434,-0.042,-0.0427,-0.0416,-0.0402,-0.0392,-0.0392,-0.034,-0.0315,-0.0276,-0.0277,-0.0266,-0.0242,-0.0262,-0.0223,-0.0219,-0.0216,-0.0178,-0.017,-0.0261,-0.0261,-0.0261,-0.0261,0,-0.0439,-0.045,-0.0456,-0.0461,-0.0458,-0.0463,-0.0447,-0.0442,-0.0433,-0.0416,-0.0386,-0.035,-0.0318,-0.0304,-0.0289,-0.0248,-0.024,-0.0233,-0.0219,-0.0213,-0.0174,-0.0165,-0.0263,-0.0262,-0.0262,-0.0262,0,0,-0.0456,-0.0468,-0.0472,-0.0482,-0.0475,-0.0476,-0.0468,-0.0453,-0.0447,-0.042,-0.0401,-0.0355,-0.0334,-0.0313,-0.0284,-0.0242,-0.0194,-0.023,-0.0228,-0.0193,-0.0102,-0.011,-0.0101,-0.0182,-0.018,-0.0179,-0.0086,0,-0.0474,-0.05,-0.0495,-0.0514,-0.0525,-0.0507,-0.0502,-0.0484,-0.0462,-0.0439,-0.0386,-0.0361,-0.0337,-0.0324,-0.0277,-0.0217,-0.0172,-0.022,-0.0113,-0.011,-0.0117,-0.0091,-0.0175,-0.008,-0.0078,-0.0076,-0.0075,0,-0.0494,-0.051,-0.0538,-0.0547,-0.0549,-0.0556,-0.0545,-0.0536,-0.0491,-0.0471,-0.0427,-0.039,-0.0324,-0.0311,-0.0193,-0.0228,-0.0168,-0.0118,-0.0113,-0.0106,-0.0101,-0.0085,-0.0059,-0.006,-0.0061,-0.0062,-0.0063,0,-0.0516,-0.0537,-0.0564,-0.0568,-0.0574,-0.0582,-0.0581,-0.0551,-0.0542,-0.0493,-0.0477,-0.0396,-0.0356,-0.0269,-0.0171,-0.0182,-0.004,-0.0041,0.0013,0.0013,0.0001,-0.0003,0.0047,0.0047,0.0047,0.0046,0.0046,0,-0.0536,-0.0557,-0.0583,-0.0599,-0.0628,-0.0616,-0.063,-0.0613,-0.0581,-0.0565,-0.0501,-0.0463,-0.0345,-0.0254,-0.0167,-0.0049,-0.0034,0.0022,0.0041,-0.0011,-0.0018,0.0008,0.0002,0.005,0.0049,0.0048,0.0048,0,-0.0555,-0.0571,-0.0607,-0.0632,-0.0644,-0.0667,-0.0678,-0.0679,-0.0644,-0.0619,-0.0606,-0.0504,-0.0385,-0.0263,-0.011,-0.0047,0.0066,0.0105,0.0042,0.0055,0.009,0.0082,0.0175,0.0175,0.0176,0.0176,0.0177,0,-0.0564,-0.0588,-0.0642,-0.0673,-0.0692,-0.0722,-0.0741,-0.0719,-0.071,-0.0641,-0.0624,-0.0511,-0.0433,-0.0211,-0.0093,0.0081,0.0099,0.0153,0.0122,0.0096,0.0106,0.0097,0.0088,0.0177,0.0178,0.0178,0.0178,0,-0.0583,-0.061,-0.0643,-0.0713,-0.0752,-0.0783,-0.0801,-0.0797,-0.0756,-0.0728,-0.0621,-0.0505,-0.0366,-0.0205,-0.0068,0.0052,0.0114,0.0159,0.0158,0.0129,0.01,0.0107,0.0099,0.018,0.0179,0.0179,0.0179,0,-0.0596,-0.063,-0.0685,-0.0739,-0.0795,-0.0823,-0.083,-0.0801,-0.0779,-0.0691,-0.0656,-0.0501,-0.0405,-0.0219,-0.0095,0.0024,0.0046,0.0072,0.0076,0.0075,0.0011,-0.0043,0.0019,0,0,0,0,0,-0.0603,-0.0645,-0.0704,-0.0763,-0.0819,-0.0844,-0.0858,-0.0849,-0.081,-0.0736,-0.0689,-0.0555,-0.0349,-0.0255,-0.0136,-0.0107,0.0047,0.0033,0.0073,0.0189,0.0187,0.0127,0,0,0,0,0,0,-0.061,-0.067,-0.0703,-0.0769,-0.081,-0.0859,-0.0868,-0.0843,-0.0785,-0.073,-0.0613,-0.0539,-0.0336,-0.0414,-0.0136,-0.0101,-0.0063,0.0135,0.0137,0.019,0.0189,0.0187,0.0125,0,0,0,0,0]}]]